www.pogodaiklimat.ru

Погода и климат >> Архив погоды >> Россия >> Камчатский край >> Соболево


АРХИВ ПОГОДЫ в Соболево

Время (UTC), дата Ветер
(напр.,м/с)
 
Видим.   Явления Облачность Т
(С)
Тd
(С)
f
(%)
Тe
(С)
Тes
(С)
Комфортность P
(гПа)
Po
(гПа)
Тmin
(С)
Tmax
(С)
R
(мм)
R24
(мм)
S
(см)
09 12.02 ЮВ 3 20 км {ливн. осадки} 6/6 600 м
[Sc]
-11.0 -13.9 79 -17 -17 1009.4 1006.1 -6.5 3
12 12.02 ЮВ 5-11
{11}
2000 м слаб. ливневой снег {метель} 10/10 300 м
[Cb cap]
-9.4 -10.7 90 -17 -17 1010.4 1007.1
15 12.02 ЮВ 6-10
{11}
10 км позёмок {ливн. осадки} 10/10 600 м
[Sc]
-10.4 -12.9 82 -19 -19 1011.2 1007.9
18 12.02 Ю 5
{12}
10 км позёмок {ливн. осадки} 10/10 600 м
[Sc]
-10.5 -13.1 81 -18 -18 1013.0 1009.7
21 12.02 В 2 50 км {метель} 3/0
[Ac trans]
-14.4 -19.3 66 -19 -19 1013.7 1010.4 -14.4 3 90
00 13.02 В 2 50 км {метель} 3/0
[Ac trans]
-10.9 -21.1 43 -15 -13 1014.7 1011.4 -14.7
03 13.02 СВ 2 50 км 6/0
[Ci fib]
-7.2 -20.7 33 -11 -9 1012.6 1009.4
06 13.02 С 3 50 км 10/0
[Cs]
-9.4 -19.9 42 -15 -15 1011.0 1007.8
09 13.02 С 3 20 км 10/0
[Ci fib]
-10.8 -20.6 44 -17 -17 1008.3 1005.0 -6.6
12 13.02 СВ 4 20 км 10/0
[Ac und]
-8.3 -17.2 49 -15 -15 1003.9 1000.7
15 13.02 СВ 5-10
{10}
20 км позёмок 10/0
[Ac und]
-6.8 -16.5 46 -14 -14 999.5 996.3
18 13.02 С 5-10
{12}
20 км позёмок 10/0
[Ac und]
-7.1 -15.4 52 -14 -14 995.5 992.3
21 13.02 С 4
{12}
20 км {метель} 10/0
[Ac und]
-7.8 -14.3 60 -14 -14 992.9 989.7 -10.8 86
00 14.02 С 4 20 км {метель} 8/3 600 м
[Sc Ac trans]
-9.7 -15.9 61 -16 -16 990.6 987.4
03 14.02 С 5 20 км 10/3 600 м
[Sc Ac und]
-8.1 -12.9 68 -16 -15 987.3 984.2
06 14.02 С 6-11
{11}
20 км позёмок 10/0
[Ac und]
-8.7 -13.8 67 -17 -17 984.7 981.6
09 14.02 С 7-12
{15}
20 км позёмок 10/0
[Ac und]
-11.9 -15.8 73 -21 -21 984.6 981.3 -7.7
12 14.02 С 5-10
{14}
20 км позёмок 8/0
[Ac As]
-13.2 -16.5 76 -22 -22 985.9 982.7
15 14.02 С 5
{13}
20 км позёмок 10/0
[Ac und]
-13.8 -17.2 75 -22 -22 986.9 983.6
18 14.02 С 5
{12}
4000 м слаб. ливневой снег {метель} 10/10 300 м
[Cb cap]
-13.8 -17.4 74 -22 -22 988.1 984.8
21 14.02 С 3
{10}
10 км {ливн. осадки} 8/8 600 м
[Sc]
-14.2 -18.2 72 -21 -21 989.6 986.3 -14.3 0.3 85
00 15.02 С 3 4000 м {ливн. осадки} 10/10 300 м
[Cb cap]
-13.5 -17.4 72 -20 -20 990.6 987.3
03 15.02 СЗ 2 20 км 10/0
[Ac und]
-12.3 -17.2 67 -17 -16 990.5 987.3
06 15.02 С 1 20 км 10/0
[Ac und]
-12.7 -16.0 76 -15 -15 991.7 988.4
09 15.02 ЮВ 1 20 км 10/0
[Ac und]
-16.5 -18.6 84 -19 -19 992.7 989.4 -12.2 0.0
12 15.02 В 1 10 км слаб. ливневой снег 10/6 600 м
[Cb cap Ac und]
-17.1 -19.2 84 -20 -20 992.6 989.3
15 15.02 В 1 10 км слаб. ливневой снег 10/6 600 м
[Cb cap Ac und]
-16.9 -19.1 83 -20 -20 992.2 988.9
18 15.02 СВ 1 20 км {ливн. осадки} 10/0
[Ac und]
-18.0 -20.3 82 -21 -21 991.8 988.5
21 15.02 В 1 4000 м слаб. ливневой снег 10/10 300 м
[Cb cap]
-17.4 -19.6 83 -20 -20 991.6 988.3 -18.7 1 84
00 16.02 ЮВ 1 10 км в посл. час ливневой снег 10/10 600 м
[Sc diur, vesp]
-13.5 -16.1 81 -16 -16 991.3 988.0
03 16.02 ЮВ 1 4000 м слаб. ливневой снег 10/6 600 м
[Cb cap Ac und]
-9.6 -12.6 79 -12 -11 990.0 986.8
06 16.02 СЗ 2 4000 м слаб. ливневой снег 10/10 300 м
[Cb cap]
-9.2 -11.2 85 -14 -14 990.0 986.8
09 16.02 штиль 0 10 км {ливн. осадки} 10/10 600 м
[Sc]
-13.6 -15.3 87 -14 -14 990.1 986.8 -7.8 2
12 16.02 ЮВ 1 4000 м слаб. ливневой снег 10/10 300 м
[Cb cap]
-14.0 -15.8 86 -16 -16 990.1 986.9
15 16.02 ЮВ 1 4000 м слаб. ливневой снег 10/10 300 м
[Cb cap]
-12.8 -14.6 86 -15 -15 990.2 987.0
18 16.02 штиль 0 4000 м слаб. ливневой снег 10/10 300 м
[Cb cap]
-12.9 -14.7 86 -13 -13 990.4 987.2
21 16.02 В 1 10 км в посл. час ливневой снег 8/8 600 м
[Sc diur, vesp]
-16.3 -18.5 83 -19 -19 991.0 987.7 -16.3 0.4 89
00 17.02 В 1 20 км {ливн. осадки} 8/6 600 м
[Sc Ac trans]
-11.8 -14.9 78 -14 -13 991.4 988.2 -17.0
03 17.02 Ю 1 20 км 8/4 600 м
[Sc diur, vesp Ac trans Ci fib]
-7.5 -12.5 67 -10 -8 991.1 987.9
06 17.02 Ю 2 20 км 8/6 600 м
[Sc Ac trans]
-10.4 -13.5 78 -15 -15 991.8 988.6
09 17.02 ЮВ 2 20 км 6/0
[Ac As]
-7.4 -17.1 46 -11 -11 993.2 989.9
12 17.02 ЮВ 3 10 км в посл. час ливневой снег 8/8 600 м
[Sc]
-13.4 -15.2 86 -20 -20 994.3 991.0
15 17.02 ЮВ 3 20 км 8/3 600 м
[Sc Ac As]
-14.8 -17.2 82 -21 -21 995.0 991.7
18 17.02 ЮВ 3 20 км 6/0
[Ac As]
-15.7 -18.4 80 -22 -22 995.6 992.3
21 17.02 ЮВ 3 20 км 6/3 600 м
[Sc Ac trans]
-14.6 -18.3 73 -21 -21 996.7 993.4 -15.7 0.6 87
00 18.02 ЮВ 3 50 км 10/0
[Ac und]
-10.8 -16.1 65 -17 -16 998.2 995.0
03 18.02 Ю 4 4000 м слаб. ливневой снег 10/10 300 м
[Cb cap]
-8.0 -12.0 73 -15 -15 998.8 995.6
06 18.02 Ю 1 20 км {ливн. осадки} 6/4 600 м
[Sc Ac trans]
-8.5 -11.0 82 -11 -11 1000.4 997.2
09 18.02 Ю 1 10 км 6/6 600 м
[Sc]
-13.3 -15.1 86 -16 -16 1002.0 998.7 -7.7 0.2
12 18.02 ЮВ 2 20 км 4/0
[Ac trans]
-14.6 -16.4 86 -20 -20 1003.7 1000.4
15 18.02 Ю 3 10 км 10/10 600 м
[Sc]
-10.7 -12.4 87 -17 -17 1004.6 1001.3
18 18.02 Ю 2 4000 м 10/10 300 м
[Cb cap]
-9.7 -11.0 90 -14 -14 1005.7 1002.5
21 18.02 ЮВ 3 4000 м слаб. ливневой снег 10/10 300 м
[Cb cap]
-9.8 -11.1 90 -16 -16 1007.3 1004.0 -14.6 4 95
00 19.02 Ю 3 10 км в посл. час ливневой снег 9/9 300 м
[Sc]
-8.8 -10.7 86 -15 -14 1008.6 1005.3
03 19.02 Ю 4 4000 м слаб. ливневой снег 10/10 300 м
[Cb cap]
-7.8 -9.5 88 -15 -15 1009.1 1005.8
06 19.02 Ю 3 10 км {ливн. осадки} 6/6 600 м
[Sc]
-9.4 -11.9 82 -15 -15 1009.4 1006.2

 

Местоположение метеостанции Соболево (Камчатский край, Россия): широта 54.30 долгота 155.90 высота над уровнем моря 25 м.

В архиве по умолчанию представлена погода в Соболево за последнюю неделю. Архивные данные за месяц целиком и за предыдущие месяцы, начиная с января 2011 года, Вы можете получить, выбрав интересующий диапазон дат из раскрывающегося списка и нажав кнопку "Ввод!".


*Определитесь, кто Вы:
робот инопланетянин человек

Внимание! Время в таблицах - всемирное. Для получения местного времени необходимо прибавить поправку, которая равна 12 ч.

Смотрите также архив погоды в соседних городах и на ближайших метеорологических станциях:

Погода в Пущино (Камчатский край, Россия) (137 км)
Погода в Иче (Камчатский край, Россия) (145 км)
Погода в Большерецке (Камчатский край, Россия) (166 км)
Погода в Мильково (Камчатский край, Россия) (173 км)
Погода в Начиках (Камчатский край, Россия) (177 км)
Погода в Сосновке (Камчатский край, Россия) (208 км)
Погода в Петропавловск-Камч. 2 (Камчатский край, Россия) (218 км)
Погода в Долиновке (Камчатский край, Россия) (219 км)
Погода в Петропавловск-Камчатском (Камчатский край, Россия) (239 км)
Погода в Петропавловском Маяке (Камчатский край, Россия) (243 км)

Пояснения к столбцам:

Ветер - указаны скорость ветра в м/с - средняя за 10 мин, порывы в срок и между сроками (в фигурных скобках) и направление, откуда дует ветер: С - северный, СВ - северо-восточный, В - восточный, ЮВ - юго-восточный, Ю - южный, ЮЗ - юго-западный, З - западный, СЗ - северо-западный.
Видимость - горизонтальная дальность видимости в метрах или километрах. При видимости от 1 до 10 км при отсутствии осадков обычно наблюдается дымка, при ухудшении видимости до 1 км и менее - туман. В сухую погоду видимость может ухудшаться дымом, пылью или мглою.
Явления - указаны атмосферные явления, наблюдавшиеся в срок или в последний час перед сроком; фигурными скобками обозначены явления, наблюдавшиеся между сроками (за 1-3 часа до срока); квадратными скобками обозначены град или гололедные отложения с указанием их диаметра в мм.
Облачность - указаны через наклонную черту общая и нижняя облачность в баллах и высота нижней границы облаков в метрах; квадратными скобками обозначены формы облаков: Ci - перистые, Cs - перисто-слоистые, Cc - перисто-кучевые, Ac - высококучевые, As - высокослоистые, Sc - слоисто-кучевые, Ns - слоисто-дождевые, Cu - кучевые, Cb - кучево-дождевые. Подробнее классификацию облаков см. в Атласе облаков (PDF).
T - Температура воздуха - температура, измеренная на высоте 2 м над землей.
Td - Температура точки росы - температура, при понижении до которой содержащийся в воздухе водяной пар достигнет насыщения.
f - Относительная влажность воздуха - влажноcть воздуха, измеренная на высоте 2 м над землей.
Te - Эффективная температура - температура, которую ощущает одетый по сезону человек в тени. Характеристика душности погоды. При расчете учитывается влияние влажности воздуха и скорости ветра на теплоощущения человека.
Tes - Эффективная температура на солнце - температура, которую ощущает человек, с поправкой на солнечный нагрев. Характеристика знойности погоды. Зависит от высоты солнца над горизонтом, облачности и скорости ветра. Ночью, в пасмурную погоду, а также при ветре 12 м/с и более поправка равна нулю.
P - Атмосферное давление - приведенное к уровню моря атмосферное давление.
Po - Атмосферное давление - измеренное на уровне метеостанции атмосферное давление.
Tmin - Минимальная температура - минимум температуры воздуха на высоте 2 м над землей.
Tmax - Максимальная температура - максимум температуры воздуха на высоте 2 м над землей.
R - Количество осадков - Количество выпавших осадков за период времени, мм. При наведении курсора мыши на число - период времени, за который выпало указанное количество осадков.
R24 - Количество осадков - Количество выпавших осадков за 24 часа, мм.
S - Снежный покров - Высота снежного покрова, см. При наведении курсора мыши на число - состояние снежного покрова и степень покрытия местности в баллах.